星链-1149 (STARLINK-1149 )

导读

STARLINK-1149是美国SpaceX星链(Starlink)互联网星座中的一颗低轨道通信卫星,于2020年1月29日发射入轨,归属美国太空探索技术公司运营。作为星链星座早期组网卫星之一,它运行在近地轨道,依托星链星座的规模化部署,承担全球高速卫星互联网接入服务,重点为偏远地区提供低延迟宽带通信支持,是SpaceX构建全球卫星通信网络的重要组成单元。

基本信息
目录编号:
45079
目录名称:
STARLINK-1149
国际标识:
2020-006AM
轨道中心:
EARTH
卫星名称:
星链-1149
卫星全名:
星链-1149 (STARLINK-1149 )
卫星状态:
已陨落 最后检测时间 2024-06-29
发射日期:
2020-01-29 UTC
国别 :
美国 (US)
星等 :
--
该卫星已列入 空间交会检测服务 Space Conjunction Data Service (SCDS) ,当前飞行风险评估等级: 无高风险
轨道信息
数据来源 国际轨道数据
星历时间: 2024-06-29T18:38:25+0800
轨道信息已过期805天
半长轴: 6566.379km
偏心率: 0.0005347
轨道倾角: 53.032°
近地点辐角 256.340°
升交点赤经 116.138°
平近点角 235.472°
近地点: 184.732km
远地点: 191.756km
周期: 88.257分钟
每日圈数: 16.316009
详细信息
固有亮度:
5
最大亮度:
2.5
卫星平台:
Starlink V1.0
覆盖范围:
全球
运营商:
太空探索技术公司
运营商所在国:
美国
制造商(研发单位):
太空探索技术公司
制造商所在国:
美国
使用方式:
暂无
卫星简介
星链(Starlink)计划是由太空探索技术公司(SpaceX)提出的一个巨型低轨卫星互联网星座项目,计划在2019年至2024年间在太空搭建由约1.2万颗卫星组成的“星链”网络,其中1584颗将部署在地球上空550千米处的近地轨道,并从2020年开始工作。该卫星已陨落。
与全量物体交会距离演化趋势
与全量物体交会风险概率演化趋势